Home > Weather > Iqaluit > Past weeks

Flag for Canada Weather for the Past 2 Weeks in Iqaluit, Nunavut, Canada

Now
-24 °F

Snow flurries. Broken clouds.


Feels Like: -24 °F
Forecast: -25 / -15 °F
Wind: No wind

Location: Iqaluit

Current Time: Feb 8, 2016 at 12:25:50 PM

Latest Report: Feb 8, 2016 at 12:00 PM


Visibility: 12 mi

Pressure: 30.20 "Hg

Humidity: 68%

Dew point: -31 °F

Location of IqaluitLocation

Historic Weather in Iqaluit — Graph

°F

Iqaluit Temperature Yesterday

Maximum temperature yesterday: -17 °F (at 4:00 AM)
Minimum temperature yesterday: -27 °F (at 9:00 PM)
Average temperature yesterday: -21 °F

High & Low Weather Summary for the Past Weeks

 TemperatureHumidityPressure
High9 °F (Feb 2, 6:00 AM)84% (Feb 2, 12:00 AM)30.19 "Hg (Feb 2, 12:00 AM)
Low-31 °F (Jan 24, 4:00 PM)51% (Jan 27, 4:00 AM)29.33 "Hg (Jan 26, 1:00 PM)
Average-17 °F69%29.74 "Hg
* Reported Jan 24 11:00 AM — Feb 8 11:00 AM, Iqaluit, Weather by CustomWeather, © 2016

Note: Actual official high and low records may vary slightly from our data, if they occured in-between our weather recording intervals... More about our weather records

Advertising

Iqaluit Weather History for the Previous 24 Hours

 ConditionsComfort  
Time TempWeatherWind HumidityBarometerVisibility
11:00 AM
Mon, Feb 8
-24 °FSnow flurries. Scattered clouds.5 mph68%30.19 "Hg30 mi
10:00 AM-24 °FSnow flurries. Passing clouds.No wind68%30.17 "Hg25 mi
9:00 AM-24 °FSnow flurries. Scattered clouds.8 mph61%30.16 "Hg15 mi
8:00 AM-24 °FSnow flurries. Broken clouds.8 mph68%30.15 "Hg15 mi
7:00 AM-26 °FSnow flurries. Passing clouds.8 mph67%30.14 "Hg15 mi
6:00 AM-24 °FLight snow. Passing clouds.5 mph68%30.13 "Hg10 mi
5:00 AM-24 °FSnow flurries. Passing clouds.7 mph68%30.11 "Hg15 mi
4:00 AM-24 °FSnow flurries. Passing clouds.6 mph68%30.10 "Hg15 mi
3:00 AM-24 °FSnow flurries. Partly cloudy.8 mph68%30.09 "Hg15 mi
2:00 AM-22 °FSnow flurries. Passing clouds.7 mph68%30.08 "Hg15 mi
1:00 AM-24 °FSnow flurries. Passing clouds.7 mph68%30.07 "Hg15 mi
12:00 AM-24 °FSnow flurries. Passing clouds.8 mph61%30.05 "Hg15 mi
11:00 PM
Sun, Feb 7
-26 °FSnow flurries. Passing clouds.9 mph67%30.04 "Hg15 mi
10:00 PM-24 °FSnow flurries. Passing clouds.10 mph68%30.04 "Hg15 mi
9:00 PM-27 °FSnow flurries. Passing clouds.9 mph67%30.03 "Hg15 mi
8:00 PM-26 °FSnow flurries. Passing clouds.10 mph67%30.03 "Hg15 mi
7:00 PM-26 °FSnow flurries. Passing clouds.12 mph67%30.01 "Hg15 mi
6:00 PM-26 °FSnow flurries. Clear.12 mph67%30.01 "Hg15 mi
5:00 PM-26 °FSnow flurries. Passing clouds.8 mph67%30.00 "Hg15 mi
4:00 PM-24 °FSnow flurries. Passing clouds.10 mph68%29.98 "Hg20 mi
3:00 PM-22 °FSnow flurries. Low level haze.12 mph68%29.96 "Hg30 mi
2:00 PM-20 °FSnow flurries. Low level haze.15 mph62%29.93 "Hg30 mi
1:00 PM-20 °FSnow flurries. Passing clouds.13 mph68%29.92 "Hg30 mi
12:00 PM-18 °FSnow flurries. Scattered clouds.13 mph62%29.91 "Hg25 mi
Weather by CustomWeather, © 2016

See weather overviewHow to use our weather pages